Meteorología y climatología de Navarra
Datos de la estación - Meteo Navarra

Estación de Iñarbegi GN

Altitud 585 m.


Datos desde el 23/05/2020 hasta el 24/05/2020 en horario solar
Los datos son PROVISIONALES

Anterior Página 1 de 1 Siguiente Descargar: Formato para Excel 2000 o superior   Formato csv   Formato para OpenOffice Calc
Fecha Temperatura Humedad relativa Radiación global Insolación Precipitación Vel. viento 10 m Vel. viento 10 m Dir. viento 10 m
ºC % W/m² s l/m² m/s km/h º
23/05/2020 0:00 13.7 100 - - - - 0.0 - - - - - -
23/05/2020 0:10 13.7 100 - - - - 0.0 - - - - - -
23/05/2020 0:20 13.5 100 - - - - 0.1 - - - - - -
23/05/2020 0:30 13.5 100 - - - - 0.0 - - - - - -
23/05/2020 0:40 13.5 100 - - - - 0.0 - - - - - -
23/05/2020 0:50 13.5 100 - - - - 0.1 - - - - - -
23/05/2020 1:00 13.5 100 - - - - 0.0 - - - - - -
23/05/2020 1:10 13.5 100 - - - - 0.1 - - - - - -
23/05/2020 1:20 13.5 100 - - - - 0.0 - - - - - -
23/05/2020 1:30 13.5 100 - - - - 0.1 - - - - - -
23/05/2020 1:40 13.5 100 - - - - 0.1 - - - - - -
23/05/2020 1:50 13.6 100 - - - - 0.1 - - - - - -
23/05/2020 2:00 13.5 100 - - - - 0.1 - - - - - -
23/05/2020 2:10 13.6 100 - - - - 0.1 - - - - - -
23/05/2020 2:20 13.5 100 - - - - 0.0 - - - - - -
23/05/2020 2:30 13.5 100 - - - - 0.1 - - - - - -
23/05/2020 2:40 13.6 100 - - - - 0.0 - - - - - -
23/05/2020 2:50 13.5 100 - - - - 0.0 - - - - - -
23/05/2020 3:00 13.5 100 - - - - 0.1 - - - - - -
23/05/2020 3:10 13.6 100 - - - - 0.1 - - - - - -
23/05/2020 3:20 13.6 100 - - - - 0.1 - - - - - -
23/05/2020 3:30 13.6 100 - - - - 0.1 - - - - - -
23/05/2020 3:40 13.6 100 - - - - 0.1 - - - - - -
23/05/2020 3:50 13.6 100 - - - - 0.1 - - - - - -
23/05/2020 4:00 13.6 100 - - - - 0.0 - - - - - -
23/05/2020 4:10 13.7 100 - - - - 0.0 - - - - - -
23/05/2020 4:20 13.6 100 - - - - 0.2 - - - - - -
23/05/2020 4:30 13.6 100 - - - - 0.0 - - - - - -
23/05/2020 4:40 13.5 100 - - - - 0.0 - - - - - -
23/05/2020 4:50 13.5 100 - - - - 0.1 - - - - - -
23/05/2020 5:00 13.4 100 - - - - 0.1 - - - - - -
23/05/2020 5:10 13.5 100 - - - - 0.0 - - - - - -
23/05/2020 5:20 13.4 100 - - - - 0.0 - - - - - -
23/05/2020 5:30 13.4 100 - - - - 0.1 - - - - - -
23/05/2020 5:40 13.3 100 - - - - 0.0 - - - - - -
23/05/2020 5:50 13.4 100 - - - - 0.0 - - - - - -
23/05/2020 6:00 13.4 100 - - - - 0.0 - - - - - -
23/05/2020 6:10 13.4 100 - - - - 0.0 - - - - - -
23/05/2020 6:20 13.5 100 - - - - 0.0 - - - - - -
23/05/2020 6:30 13.6 100 - - - - 0.0 - - - - - -
23/05/2020 6:40 13.7 100 - - - - 0.0 - - - - - -
23/05/2020 6:50 13.8 100 - - - - 0.0 - - - - - -
23/05/2020 7:00 14.0 100 - - - - 0.0 - - - - - -
23/05/2020 7:10 14.1 100 - - - - 0.0 - - - - - -
23/05/2020 7:20 14.3 100 - - - - 0.0 - - - - - -
23/05/2020 7:30 14.3 100 - - - - 0.0 - - - - - -
23/05/2020 7:40 14.2 100 - - - - 0.0 - - - - - -
23/05/2020 7:50 14.1 100 - - - - 0.0 - - - - - -
23/05/2020 8:00 13.9 100 - - - - 0.0 - - - - - -
23/05/2020 8:10 13.9 100 - - - - 0.1 - - - - - -
23/05/2020 8:20 13.8 100 - - - - 0.1 - - - - - -
23/05/2020 8:30 14.0 100 - - - - 0.1 - - - - - -
23/05/2020 8:40 13.9 100 - - - - 0.3 - - - - - -
23/05/2020 8:50 14.0 100 - - - - 0.5 - - - - - -
23/05/2020 9:00 13.3 100 - - - - 0.4 - - - - - -
23/05/2020 9:10 12.7 100 - - - - 0.5 - - - - - -
23/05/2020 9:20 12.3 100 - - - - 0.5 - - - - - -
23/05/2020 9:30 12.2 100 - - - - 0.4 - - - - - -
23/05/2020 9:40 12.1 100 - - - - 0.2 - - - - - -
23/05/2020 9:50 12.0 100 - - - - 0.1 - - - - - -
23/05/2020 10:00 11.6 100 - - - - 0.1 - - - - - -
23/05/2020 10:10 11.5 100 - - - - 0.2 - - - - - -
23/05/2020 10:20 11.5 100 - - - - 0.1 - - - - - -
23/05/2020 10:30 11.5 100 - - - - 0.1 - - - - - -
23/05/2020 10:40 11.6 100 - - - - 0.2 - - - - - -
23/05/2020 10:50 11.9 100 - - - - 0.0 - - - - - -
23/05/2020 11:00 11.9 100 - - - - 0.1 - - - - - -
23/05/2020 11:10 12.0 100 - - - - 0.0 - - - - - -
23/05/2020 11:20 12.1 100 - - - - 0.0 - - - - - -
23/05/2020 11:30 12.1 100 - - - - 0.0 - - - - - -
23/05/2020 11:40 12.2 100 - - - - 0.0 - - - - - -
23/05/2020 11:50 12.3 100 - - - - 0.0 - - - - - -
23/05/2020 12:00 12.1 100 - - - - 0.0 - - - - - -
23/05/2020 12:10 12.1 100 - - - - 0.0 - - - - - -
23/05/2020 12:20 12.6 100 - - - - 0.0 - - - - - -
23/05/2020 12:30 12.9 100 - - - - 0.0 - - - - - -
23/05/2020 12:40 13.0 100 - - - - 0.0 - - - - - -
23/05/2020 12:50 12.7 100 - - - - 0.0 - - - - - -
23/05/2020 13:00 12.4 100 - - - - 0.0 - - - - - -
23/05/2020 13:10 12.3 100 - - - - 0.0 - - - - - -
23/05/2020 13:20 12.2 100 - - - - 0.0 - - - - - -
23/05/2020 13:30 12.0 100 - - - - 0.1 - - - - - -
23/05/2020 13:40 11.8 100 - - - - 0.1 - - - - - -
23/05/2020 13:50 11.6 100 - - - - 0.2 - - - - - -
23/05/2020 14:00 11.7 100 - - - - 0.2 - - - - - -
23/05/2020 14:10 11.6 100 - - - - 0.1 - - - - - -
23/05/2020 14:20 11.7 100 - - - - 0.1 - - - - - -
23/05/2020 14:30 12.0 100 - - - - 0.0 - - - - - -
23/05/2020 14:40 12.6 100 - - - - 0.0 - - - - - -
23/05/2020 14:50 12.6 100 - - - - 0.0 - - - - - -
23/05/2020 15:00 12.0 100 - - - - 0.0 - - - - - -
23/05/2020 15:10 12.1 100 - - - - 0.0 - - - - - -
23/05/2020 15:20 11.9 100 - - - - 0.0 - - - - - -
23/05/2020 15:30 12.0 100 - - - - 0.0 - - - - - -
23/05/2020 15:40 12.1 100 - - - - 0.0 - - - - - -
23/05/2020 15:50 12.4 100 - - - - 0.0 - - - - - -
23/05/2020 16:00 12.4 100 - - - - 0.0 - - - - - -
23/05/2020 16:10 12.2 100 - - - - 0.0 - - - - - -
23/05/2020 16:20 12.3 100 - - - - 0.0 - - - - - -
23/05/2020 16:30 12.5 100 - - - - 0.0 - - - - - -
23/05/2020 16:40 12.4 100 - - - - 0.0 - - - - - -
23/05/2020 16:50 12.5 100 - - - - 0.0 - - - - - -
23/05/2020 17:00 12.2 97 - - - - 0.0 - - - - - -
23/05/2020 17:10 12.1 99 - - - - 0.0 - - - - - -
23/05/2020 17:20 12.0 100 - - - - 0.0 - - - - - -
23/05/2020 17:30 12.0 100 - - - - 0.0 - - - - - -
23/05/2020 17:40 12.0 100 - - - - 0.0 - - - - - -
23/05/2020 17:50 11.8 100 - - - - 0.0 - - - - - -
23/05/2020 18:00 11.6 100 - - - - 0.0 - - - - - -
23/05/2020 18:10 11.6 100 - - - - 0.0 - - - - - -
23/05/2020 18:20 11.4 100 - - - - 0.0 - - - - - -
23/05/2020 18:30 11.3 100 - - - - 0.0 - - - - - -
23/05/2020 18:40 11.4 100 - - - - 0.0 - - - - - -
23/05/2020 18:50 11.3 100 - - - - 0.0 - - - - - -
23/05/2020 19:00 11.4 100 - - - - 0.0 - - - - - -
23/05/2020 19:10 11.4 100 - - - - 0.0 - - - - - -
23/05/2020 19:20 11.4 100 - - - - 0.0 - - - - - -
23/05/2020 19:30 11.2 100 - - - - 0.0 - - - - - -
23/05/2020 19:40 11.0 100 - - - - 0.0 - - - - - -
23/05/2020 19:50 10.9 100 - - - - 0.0 - - - - - -
23/05/2020 20:00 10.9 100 - - - - 0.0 - - - - - -
23/05/2020 20:10 10.9 100 - - - - 0.0 - - - - - -
23/05/2020 20:20 11.0 100 - - - - 0.0 - - - - - -
23/05/2020 20:30 10.9 100 - - - - 0.1 - - - - - -
23/05/2020 20:40 10.9 100 - - - - 0.0 - - - - - -
23/05/2020 20:50 10.8 100 - - - - 0.0 - - - - - -
23/05/2020 21:00 10.9 100 - - - - 0.0 - - - - - -
23/05/2020 21:10 10.8 100 - - - - 0.0 - - - - - -
23/05/2020 21:20 10.8 100 - - - - 0.0 - - - - - -
23/05/2020 21:30 10.7 100 - - - - 0.0 - - - - - -
23/05/2020 21:40 10.6 100 - - - - 0.1 - - - - - -
23/05/2020 21:50 10.6 100 - - - - 0.0 - - - - - -
23/05/2020 22:00 10.6 100 - - - - 0.0 - - - - - -
23/05/2020 22:10 10.5 100 - - - - 0.0 - - - - - -
23/05/2020 22:20 10.5 100 - - - - 0.0 - - - - - -
23/05/2020 22:30 10.6 100 - - - - 0.0 - - - - - -
23/05/2020 22:40 10.6 100 - - - - 0.0 - - - - - -
23/05/2020 22:50 10.5 100 - - - - 0.1 - - - - - -
23/05/2020 23:00 10.5 100 - - - - 0.0 - - - - - -
23/05/2020 23:10 10.5 100 - - - - 0.0 - - - - - -
23/05/2020 23:20 10.4 100 - - - - 0.0 - - - - - -
23/05/2020 23:30 10.4 100 - - - - 0.1 - - - - - -
23/05/2020 23:40 10.4 100 - - - - 0.0 - - - - - -
23/05/2020 23:50 10.4 100 - - - - 0.0 - - - - - -
Anterior Página 1 de 1 Siguiente

NOTA: Tipo de datos según el color:
   - Valores diarios o 10 minutos correctos
   - Valores diarios calculados a partir de un número de datos 10 minutos menor que 144 y mayor que 120, o de un número de datos semihorarios menor que 48 y mayor que 40 (caso de las estaciones de INTIA y del Ministerio)
   - Valores diez minutos estimados


Contacto        Enlaces        Aviso legal